This demonstration page uses our WeatherBlox Daily Observations layout. Learn more.

Left ArrowRight Arrow

Hourly Observations for May 29, 2020

Temp ( °F °C ) Dew Point ( °F °C ) Humidity (%) Winds ( mph kmh ) Pressure ( in mb ) Visibility ( mi km ) Precip ( " mm )
12:52 am 00:52 Clear 59 15 47 8.3 64 64 Calm 30.09 1019 10 16 0.00 0.00
1:52 am 01:52 Clear 56 13.3 45 7.2 67 67 N 3 6 30.09 1019 10 16 0.00 0.00
2:52 am 02:52 Clear 54 12.2 46 7.8 75 75 N 5 7 30.10 1019 10 16 0.00 0.00
3:52 am 03:52 Clear 56 13.3 46 7.8 70 70 N 5 7 30.11 1020 10 16 0.00 0.00
4:52 am 04:52 Clear 53 11.7 46 7.8 77 77 Calm 30.13 1020 10 16 0.00 0.00
5:52 am 05:52 Mostly Clear 52 11.1 46 7.8 80 80 NNW 3 6 30.15 1021 10 16 0.00 0.00
6:52 am 06:52 Sunny 54 12.2 46 7.8 75 75 Calm 30.16 1021 10 16 0.00 0.00
7:52 am 07:52 Sunny 59 15 47 8.3 64 64 Calm 30.16 1021 10 16 0.00 0.00
8:52 am 08:52 Sunny 62 16.7 49 9.4 62 62 VRB 3 6 30.18 1022 10 16 0.00 0.00
9:52 am 09:52 Sunny 67 19.4 48 8.9 51 51 NNW 8 13 30.18 1022 10 16 0.00 0.00
10:52 am 10:52 Sunny 69 20.6 49 9.4 49 49 NNW 10 17 30.18 1022 10 16 0.00 0.00
11:52 am 11:52 Mostly Sunny 71 21.7 47 8.3 42 42 N 18 30 30.16 1022 10 16 0.00 0.00
12:52 pm 12:52 Mostly Sunny 73 22.8 48 8.9 41 41 NNW 13 20 30.16 1021 10 16 0.00 0.00
1:52 pm 13:52 Mostly Sunny 74 23.3 47 8.3 38 38 NNW 16 26 30.15 1021 10 16 0.00 0.00
2:52 pm 14:52 Sunny 75 23.9 46 7.8 36 36 NNW 16 26 30.14 1021 10 16 0.00 0.00
3:52 pm 15:52 Mostly Sunny 76 24.4 46 7.8 35 35 N 13 20 30.14 1021 10 16 0.00 0.00
4:52 pm 16:52 Mostly Sunny 76 24.4 45 7.2 33 33 N 15 24 30.14 1021 10 16 0.00 0.00
5:52 pm 17:52 Sunny 75 23.9 44 6.7 33 33 N 8 13 30.14 1021 10 16 0.00 0.00
6:52 pm 18:52 Mostly Sunny 75 23.9 45 7.2 34 34 N 12 19 30.13 1020 10 16 0.00 0.00
7:52 pm 19:52 Partly Cloudy 72 22.2 46 7.8 40 40 NE 8 13 30.14 1021 10 16 0.00 0.00
8:52 pm 20:52 Partly Cloudy 69 20.6 47 8.3 45 45 NE 3 6 30.14 1021 10 16 0.00 0.00
9:52 pm 21:52 Partly Cloudy 66 18.9 48 8.9 52 52 Calm 30.16 1021 10 16 0.00 0.00
10:52 pm 22:52 Partly Cloudy 61 16.1 51 10.6 70 70 Calm 30.18 1022 10 16 0.00 0.00
11:52 pm 23:52 Clear 59 15 50 10 72 72 Calm 30.18 1022 10 16 0.00 0.00

Powered by AerisWeather